Location: NJAA Observatory
(40.6819°N, 74.8979°W)
Time: 01:06:44
(UTC-04:00)

Iridium 84 - Visible Passes

Search period start: 28 August 2014 00:00
Search period end: 07 September 2014 00:00
Orbit: 776 x 779 km, 86.4° (Epoch: 27 August)

Date Brightness Start Highest point End Pass type
(mag) Time Alt. Az. Time Alt. Az. Time Alt. Az.
29 Aug 7.0 05:54:20 10° SSE 05:59:13 44° E 06:04:09 10° NNE visible
30 Aug 8.1 05:21:49 10° SE 05:25:55 24° E 05:30:01 10° NNE visible
31 Aug 8.7 04:50:24 10° ESE 04:52:44 13° ENE 04:55:03 10° NE visible
01 Sep 6.1 05:54:08 10° S 05:59:15 64° E 06:04:25 10° N visible
02 Sep 7.4 05:21:13 10° SSE 05:25:52 34° E 05:30:32 10° NNE visible
03 Sep 8.3 04:49:02 10° ESE 04:52:37 19° E 04:56:11 10° NE visible
04 Sep 5.6 05:54:07 10° S 05:59:19 88° W 06:04:34 10° N visible
05 Sep 6.5 05:20:53 10° SSE 05:25:52 50° E 05:30:53 10° NNE visible
06 Sep 7.7 04:48:13 10° SE 04:52:32 27° E 04:56:52 10° NNE visible
